User: anonymous   Login
Location: Vancouver
(49.2500°N, 123.1330°W)
Time: 05:49:19
(UTC-07:00)
Language:

AO-27 - Orbit

View from above orbital plane
View from above orbital plane
View from above satellite
View from above satellite

Ground track
Ground track

The orbit data is extracted from the following two-line orbital elements,

1 22825U 93061C   15245.18849537  .00000039  00000-0  32645-4 0  9996
2 22825  98.7153 195.3452 0009599  83.8373  32.9418 14.29900045143949
Epoch (UTC): 02 September 2015 04:31:26
Eccentricity: 0.0009599
inclination: 98.7153°
perigee height: 785 km
apogee height: 799 km
right ascension of ascending node: 195.3452°
argument of perigee: 83.8373°
revolutions per day: 14.29900045
mean anomaly at epoch: 32.9418°
orbit number at epoch: 14394

The dashed part of the orbit path shows where the satellite is in the earth's shadow,  

DLR